Location: Bottom School (historical)
(37.9078°N, 89.3593°W)
Time: 08:06:33
(UTC+00:00)

SJ 16-02 - Visible Passes

Search period start: 26 June 2022 00:00
Search period end: 06 July 2022 00:00
Orbit: 604 x 615 km, 75.0° (Epoch: 25 June)

Date Brightness Start Highest point End Pass type
(mag) Time Alt. Az. Time Alt. Az. Time Alt. Az.
26 Jun 3.5 06:30:30 10° NNE 06:33:45 20° ENE 06:34:43 18° E visible
26 Jun 2.4 08:08:23 10° NW 08:11:37 31° W 08:11:37 31° W visible
27 Jun 2.6 06:44:18 10° N 06:48:24 36° ENE 06:48:26 35° ENE visible
27 Jun 3.3 08:23:40 10° NW 08:25:21 16° WNW 08:25:21 16° WNW visible
28 Jun 1.8 06:58:29 10° NNW 07:02:13 58° NNE 07:02:13 58° NNE visible
29 Jun 3.9 05:36:35 10° NE 05:38:23 12° ENE 05:39:08 12° ENE visible
29 Jun 2.3 07:12:58 10° NNW 07:16:04 41° NW 07:16:04 41° NW visible
30 Jun 3.3 05:49:40 10° NNE 05:53:01 22° ENE 05:53:01 22° ENE visible
30 Jun 3.1 07:27:48 10° NW 07:29:56 23° WNW 07:29:56 23° WNW visible
01 Jul 2.6 06:03:33 10° N 06:06:56 36° NE 06:06:56 36° NE visible
01 Jul 3.8 07:43:14 10° WNW 07:43:51 12° WNW 07:43:51 12° WNW visible
02 Jul 2.4 06:17:47 10° NNW 06:20:53 44° N 06:20:53 44° N visible
03 Jul 3.8 04:55:30 10° NNE 04:57:45 14° ENE 04:57:56 14° ENE visible
03 Jul 2.8 06:32:19 10° NNW 06:34:52 32° NW 06:34:52 32° NW visible
04 Jul 3.1 05:08:49 10° N 05:11:57 24° NE 05:11:57 24° NE visible
04 Jul 3.4 06:47:12 10° NW 06:48:53 19° WNW 06:48:53 19° WNW visible
05 Jul 2.6 05:22:46 10° N 05:26:00 37° NNE 05:26:00 37° NNE visible
05 Jul 4.0 07:02:51 10° WNW 07:02:56 10° WNW 07:02:56 10° WNW visible
